Regional Weather Roundup
Issued by NWS

Home | Current Version | Previous Version | Text Only | Print | Product List | Glossary On
Versions: 1 2 3 4 5 6 7 8 9 10 11 12 13 14 15 16 17 18 19 20 21 22 23 24 25 26 27 28 29 30 31 32 33 34 35 36 37 38 39 40 41 42 43 44 45 46 47 48 49 50
333
ASUS44 KJAN 241903
RWRMS

MISSISSIPPI HOURLY WEATHER ROUNDUP
NATIONAL WEATHER SERVICE JACKSON MS
200 PM CDT FRI OCT 24 2014

NOTE: "FAIR: INDICATES FEW OR NO CLOUDS BELOW 12,000 FEET WITH NO
SIGNIFICANT WEATHER AND/OR OBSTRUCTIONS TO VISIBILITY.

MSZ001>002-007>008-010>013-018>021-025>028-034>036-242000-
NORTHWEST MISSISSIPPI

CITY           SKY/WX    TMP DP  RH WIND       PRES   REMARKS
CLARKSDALE     FAIR      70  48  46 NW7       30.12F
CLEVELAND      FAIR      71  48  43 CALM      30.11F
GREENWOOD      SUNNY     71  43  36 CALM      30.10F
GREENVILLE     SUNNY     72  45  37 VRB3      30.11F
GRENADA          N/A    N/A N/A N/A MISG        N/A
OLIVE BRANCH   MOSUNNY   70  54  56 N7        30.11F
OXFORD         FAIR      68  46  45 NW9       30.12F
TUNICA         CLEAR     72  50  46 NW5       30.12F
$$

MSZ003>006-009-014>017-022>024-029>033-037>039-242000-
NORTHEAST MISSISSIPPI

CITY           SKY/WX    TMP DP  RH WIND       PRES   REMARKS
COLUMBUS AFB   SUNNY     71  45  39 NW6       30.08F
CORINTH        FAIR      72  43  35 NW8       30.09F
GOLDN TRIANGLE SUNNY     73  45  35 N6        30.08F
STARKVILLE     FAIR      72  41  33 N8        30.08F
TUPELO         SUNNY     72  41  32 N9        30.09F
$$

MSZ040-058-242000-
CENTRAL MISSISSIPPI

CITY           SKY/WX    TMP DP  RH WIND       PRES   REMARKS
JACKSON INTL   SUNNY     73  43  33 N6        30.08F
JACKSON HAWKNS SUNNY     73  41  31 N7        30.09F
MERIDIAN KEY   SUNNY     75  43  31 N6        30.06F
MERIDIAN NAS   SUNNY     74  39  28 VRB6      30.06F
RAYMOND        FAIR      73  68  83 N7        30.10F
VICKSBURG      SUNNY     72  42  34 VRB5      30.11F
$$

MSZ059>079-242000-
SOUTH MISSISSIPPI

CITY           SKY/WX    TMP DP  RH WIND       PRES   REMARKS
BROOKHAVEN     FAIR      72  45  37 NE6       30.10F
COLUMBIA         N/A    N/A N/A N/A MISG        N/A
HATTIESBURG    SUNNY     74  46  36 N10       30.07F
MCCOMB         SUNNY     73  43  33 NW10      30.08F
NATCHEZ        SUNNY     70  45  40 NW6       30.11F
PINE BELT      SUNNY     73  43  33 W5        30.08F
$$

MSZ080>082-242000-
COASTAL MISSISSIPPI

CITY           SKY/WX    TMP DP  RH WIND       PRES   REMARKS
BAY ST LOUIS   SUNNY     75  37  25 N7        30.05F
BILOXI         SUNNY     76  44  32 N7        30.03F
PASCAGOULA     SUNNY     76  44  32 CALM      30.02F
GULFPORT       SUNNY     76  44  32 CALM      30.03F
$$



USA.gov is the U.S. government's official web portal to all federal, state and local government web resources and services.